| time (UTC) | temp C | wind direction | speed KPH | gust KPH | rain 1hr cm | rain 24hr cm | rain mn cm | humidity % | barometer mb |
| 20260507144358 | 10 | 221 | 6.4 | 9.7 | 0.00 | 0.00 | 0.00 | 39 | 1012.6 |
| 20260507144129 | 9 | 186 | 6.4 | 11.3 | 0.00 | 0.00 | 0.00 | 39 | 1012.5 |
| 20260507143359 | 9 | 232 | 8.0 | 14.5 | 0.00 | 0.00 | 0.00 | 38 | 1012.5 |
| 20260507142857 | 9 | 239 | 9.7 | 14.5 | 0.00 | 0.00 | 0.00 | 37 | 1012.5 |
| 20260507142628 | 9 | 240 | 6.4 | 12.9 | 0.00 | 0.00 | 0.00 | 38 | 1012.7 |
| 20260507141901 | 9 | 209 | 6.4 | 11.3 | 0.00 | 0.00 | 0.00 | 38 | 1012.7 |
| 20260507141353 | 8 | 246 | 6.4 | 12.9 | 0.00 | 0.00 | 0.00 | 39 | 1012.7 |
| 20260507140852 | 8 | 246 | 8.0 | 12.9 | 0.00 | 0.00 | 0.00 | 39 | 1012.5 |
| 20260507140351 | 8 | 281 | 8.0 | 12.9 | 0.00 | 0.00 | 0.00 | 39 | 1012.4 |
| 20260507135852 | 8 | 279 | 8.0 | 12.9 | 0.00 | 0.00 | 0.00 | 37 | 1012.4 |
| 20260507135351 | 8 | 297 | 8.0 | 11.3 | 0.00 | 0.00 | 0.00 | 39 | 1012.3 |
| 20260507135122 | 8 | 264 | 9.7 | 14.5 | 0.00 | 0.00 | 0.00 | 39 | 1012.2 |
| 20260507134346 | 8 | 259 | 9.7 | 14.5 | 0.00 | 0.00 | 0.00 | 38 | 1012.3 |
| 20260507133843 | 7 | 263 | 8.0 | 14.5 | 0.00 | 0.00 | 0.00 | 38 | 1012.0 |
| 20260507133345 | 7 | 240 | 8.0 | 11.3 | 0.00 | 0.00 | 0.00 | 38 | 1012.0 |
| 20260507133114 | 7 | 221 | 8.0 | 11.3 | 0.00 | 0.00 | 0.00 | 38 | 1012.0 |
| 20260507132344 | 7 | 221 | 9.7 | 12.9 | 0.00 | 0.00 | 0.00 | 37 | 1011.9 |
| 20260507131843 | 7 | 232 | 9.7 | 12.9 | 0.00 | 0.00 | 0.00 | 37 | 1011.9 |
| 20260507131339 | 7 | 275 | 9.7 | 12.9 | 0.00 | 0.00 | 0.00 | 38 | 1011.8 |
| 20260507130841 | 7 | 276 | 9.7 | 12.9 | 0.00 | 0.00 | 0.00 | 37 | 1011.8 |
| 20260507130340 | 7 | 275 | 9.7 | 12.9 | 0.00 | 0.00 | 0.00 | 37 | 1011.8 |
| 20260507125840 | 6 | 275 | 9.7 | 12.9 | 0.00 | 0.00 | 0.00 | 37 | 1011.7 |
| 20260507125608 | 6 | 275 | 9.7 | 12.9 | 0.00 | 0.00 | 0.00 | 37 | 1011.7 |
| 20260507124839 | 6 | 275 | 9.7 | 12.9 | 0.00 | 0.00 | 0.00 | 37 | 1011.6 |
| 20260507124333 | 6 | 286 | 9.7 | 12.9 | 0.00 | 0.00 | 0.00 | 38 | 1011.6 |
| 20260507123834 | 6 | 286 | 9.7 | 14.5 | 0.00 | 0.00 | 0.00 | 39 | 1011.6 |
| 20260507123335 | 6 | 277 | 11.3 | 14.5 | 0.00 | 0.00 | 0.00 | 38 | 1011.5 |
| 20260507122834 | 6 | 273 | 11.3 | 16.1 | 0.00 | 0.00 | 0.00 | 38 | 1011.2 |
| 20260507122335 | 6 | 234 | 12.9 | 17.7 | 0.00 | 0.00 | 0.00 | 39 | 1011.2 |
| 20260507121830 | 5 | 245 | 12.9 | 17.7 | 0.00 | 0.00 | 0.00 | 39 | 1011.2 |
| 20260507121557 | 5 | 228 | 12.9 | 16.1 | 0.00 | 0.00 | 0.00 | 39 | 1011.2 |
| 20260507120824 | 5 | 216 | 14.5 | 17.7 | 0.00 | 0.00 | 0.00 | 39 | 1011.1 |
| 20260507120323 | 5 | 223 | 14.5 | 19.3 | 0.00 | 0.00 | 0.00 | 39 | 1011.0 |
| 20260507115823 | 5 | 214 | 14.5 | 19.3 | 0.00 | 0.00 | 0.00 | 39 | 1011.0 |
| 20260507115554 | 5 | 217 | 14.5 | 19.3 | 0.00 | 0.00 | 0.00 | 39 | 1011.0 |
| 20260507114824 | 5 | 219 | 14.5 | 17.7 | 0.00 | 0.00 | 0.00 | 40 | 1010.9 |
| 20260507114320 | 5 | 212 | 14.5 | 17.7 | 0.00 | 0.00 | 0.00 | 40 | 1010.9 |
| 20260507113819 | 5 | 232 | 16.1 | 19.3 | 0.00 | 0.00 | 0.00 | 40 | 1010.9 |
| 20260507113319 | 5 | 225 | 16.1 | 24.1 | 0.00 | 0.00 | 0.00 | 40 | 1010.8 |
| 20260507112820 | 5 | 225 | 16.1 | 24.1 | 0.00 | 0.00 | 0.00 | 40 | 1010.8 |
| 20260507112320 | 5 | 212 | 16.1 | 19.3 | 0.00 | 0.00 | 0.00 | 40 | 1010.7 |
| 20260507111819 | 5 | 221 | 17.7 | 22.5 | 0.00 | 0.00 | 0.00 | 39 | 1010.7 |
| 20260507111320 | 5 | 223 | 17.7 | 29.0 | 0.00 | 0.00 | 0.00 | 39 | 1010.8 |
| 20260507110821 | 5 | 242 | 16.1 | 29.0 | 0.00 | 0.00 | 0.00 | 40 | 1010.7 |
| 20260507110319 | 5 | 213 | 16.1 | 22.5 | 0.00 | 0.00 | 0.00 | 40 | 1010.5 |
| 20260507105820 | 5 | 212 | 14.5 | 22.5 | 0.00 | 0.00 | 0.00 | 40 | 1010.7 |
| 20260507105320 | 5 | 215 | 14.5 | 20.9 | 0.00 | 0.00 | 0.00 | 40 | 1010.5 |
| 20260507104819 | 5 | 198 | 12.9 | 17.7 | 0.00 | 0.00 | 0.00 | 40 | 1010.8 |
| 20260507104319 | 5 | 206 | 12.9 | 17.7 | 0.00 | 0.00 | 0.00 | 40 | 1010.7 |
| 20260507103548 | 4 | 199 | 11.3 | 14.5 | 0.00 | 0.00 | 0.00 | 40 | 1010.5 |
| 20260507102815 | 4 | 199 | 11.3 | 12.9 | 0.00 | 0.00 | 0.00 | 41 | 1010.5 |
| 20260507102545 | 4 | 199 | 11.3 | 14.5 | 0.00 | 0.00 | 0.00 | 41 | 1010.5 |
| 20260507101813 | 4 | 199 | 11.3 | 14.5 | 0.00 | 0.00 | 0.00 | 41 | 1010.5 |
| 20260507101313 | 4 | 192 | 12.9 | 16.1 | 0.00 | 0.00 | 0.00 | 41 | 1010.5 |
| 20260507100815 | 4 | 194 | 12.9 | 16.1 | 0.00 | 0.00 | 0.00 | 41 | 1010.7 |
| 20260507100307 | 4 | 184 | 11.3 | 17.7 | 0.00 | 0.00 | 0.00 | 41 | 1010.5 |
| 20260507095807 | 4 | 187 | 11.3 | 17.7 | 0.00 | 0.00 | 0.00 | 41 | 1010.7 |
| 20260507095308 | 4 | 185 | 11.3 | 14.5 | 0.00 | 0.00 | 0.00 | 41 | 1010.7 |
| 20260507094807 | 4 | 194 | 9.7 | 14.5 | 0.00 | 0.00 | 0.00 | 41 | 1010.8 |
| 20260507094308 | 4 | 197 | 9.7 | 14.5 | 0.00 | 0.00 | 0.00 | 41 | 1010.8 |
| 20260507093807 | 4 | 202 | 9.7 | 14.5 | 0.00 | 0.00 | 0.00 | 41 | 1010.8 |
| 20260507093302 | 4 | 188 | 9.7 | 14.5 | 0.00 | 0.00 | 0.00 | 42 | 1010.8 |
| 20260507092802 | 4 | 202 | 8.0 | 14.5 | 0.00 | 0.00 | 0.00 | 42 | 1010.9 |
| 20260507092535 | 4 | 202 | 8.0 | 14.5 | 0.00 | 0.00 | 0.00 | 41 | 1010.9 |
| 20260507091801 | 4 | 201 | 8.0 | 11.3 | 0.00 | 0.00 | 0.00 | 41 | 1010.9 |
| 20260507091301 | 4 | 219 | 6.4 | 9.7 | 0.00 | 0.00 | 0.00 | 41 | 1010.9 |
| 20260507090801 | 5 | 219 | 6.4 | 9.7 | 0.00 | 0.00 | 0.00 | 40 | 1010.9 |
| 20260507090255 | 5 | 219 | 6.4 | 8.0 | 0.00 | 0.00 | 0.00 | 40 | 1010.8 |
| 20260507090025 | 5 | 219 | 4.8 | 8.0 | 0.00 | 0.00 | 0.00 | 40 | 1010.8 |
| 20260507085255 | 5 | 219 | 4.8 | 8.0 | 0.00 | 0.00 | 0.00 | 40 | 1010.5 |
| 20260507084755 | 5 | 219 | 4.8 | 12.9 | 0.00 | 0.00 | 0.00 | 40 | 1010.5 |
| 20260507084255 | 5 | 219 | 6.4 | 12.9 | 0.00 | 0.00 | 0.00 | 40 | 1010.5 |
| 20260507084029 | 5 | 198 | 6.4 | 8.0 | 0.00 | 0.00 | 0.00 | 40 | 1010.7 |
| 20260507083251 | 5 | 198 | 6.4 | 9.7 | 0.00 | 0.00 | 0.00 | 40 | 1010.7 |
| 20260507082752 | 5 | 192 | 6.4 | 9.7 | 0.00 | 0.00 | 0.00 | 39 | 1010.5 |
| 20260507082248 | 5 | 187 | 6.4 | 11.3 | 0.00 | 0.00 | 0.00 | 39 | 1010.7 |
| 20260507081749 | 5 | 212 | 8.0 | 12.9 | 0.00 | 0.00 | 0.00 | 39 | 1010.5 |
| 20260507081249 | 5 | 234 | 8.0 | 14.5 | 0.00 | 0.00 | 0.00 | 39 | 1010.7 |
| 20260507081020 | 5 | 232 | 8.0 | 14.5 | 0.00 | 0.00 | 0.00 | 39 | 1010.5 |
| 20260507080243 | 5 | 230 | 8.0 | 12.9 | 0.00 | 0.00 | 0.00 | 39 | 1010.7 |
| 20260507075743 | 5 | 208 | 9.7 | 17.7 | 0.00 | 0.00 | 0.00 | 39 | 1010.7 |
| 20260507075247 | 5 | 208 | 9.7 | 17.7 | 0.00 | 0.00 | 0.00 | 39 | 1010.8 |
| 20260507075013 | 5 | 210 | 11.3 | 14.5 | 0.00 | 0.00 | 0.00 | 38 | 1010.8 |
| 20260507074243 | 6 | 215 | 12.9 | 19.3 | 0.00 | 0.00 | 0.00 | 38 | 1010.9 |
| 20260507073743 | 6 | 237 | 11.3 | 19.3 | 0.00 | 0.00 | 0.00 | 37 | 1011.0 |
| 20260507073239 | 6 | 250 | 8.0 | 16.1 | 0.00 | 0.00 | 0.00 | 37 | 1011.0 |
| 20260507072739 | 6 | 250 | 8.0 | 12.9 | 0.00 | 0.00 | 0.00 | 37 | 1011.1 |
| 20260507072236 | 6 | 258 | 4.8 | 11.3 | 0.00 | 0.00 | 0.00 | 37 | 1011.2 |
| 20260507071737 | 6 | 258 | 4.8 | 11.3 | 0.00 | 0.00 | 0.00 | 37 | 1011.1 |
| 20260507071238 | 6 | 242 | 6.4 | 11.3 | 0.00 | 0.00 | 0.00 | 37 | 1011.2 |
| 20260507070739 | 6 | 248 | 6.4 | 9.7 | 0.00 | 0.00 | 0.00 | 37 | 1011.1 |
| 20260507070231 | 6 | 273 | 4.8 | 9.7 | 0.00 | 0.00 | 0.00 | 37 | 1011.2 |
| 20260507065731 | 6 | 205 | 4.8 | 8.0 | 0.00 | 0.00 | 0.00 | 38 | 1011.1 |
| 20260507065231 | 5 | 205 | 4.8 | 8.0 | 0.00 | 0.00 | 0.00 | 38 | 1011.1 |
| 20260507064731 | 5 | 205 | 4.8 | 6.4 | 0.00 | 0.00 | 0.00 | 38 | 1011.1 |
| 20260507064501 | 5 | 205 | 4.8 | 8.0 | 0.00 | 0.00 | 0.00 | 38 | 1011.1 |
| 20260507063731 | 5 | 205 | 6.4 | 12.9 | 0.00 | 0.00 | 0.00 | 38 | 1011.1 |
| 20260507063225 | 5 | 205 | 8.0 | 12.9 | 0.00 | 0.00 | 0.00 | 38 | 1011.2 |
| 20260507062725 | 5 | 213 | 6.4 | 12.9 | 0.00 | 0.00 | 0.00 | 38 | 1011.2 |
| 20260507062228 | 5 | 215 | 6.4 | 14.5 | 0.00 | 0.00 | 0.00 | 38 | 1011.4 |
| 20260507061725 | 5 | 213 | 8.0 | 14.5 | 0.00 | 0.00 | 0.00 | 38 | 1011.2 |
| 20260507061224 | 5 | 216 | 9.7 | 16.1 | 0.00 | 0.00 | 0.00 | 38 | 1011.5 |
| 20260507060223 | 5 | 202 | 11.3 | 16.1 | 0.00 | 0.00 | 0.00 | 38 | 1011.4 |
| 20260507055724 | 5 | 199 | 9.7 | 16.1 | 0.00 | 0.00 | 0.00 | 38 | 1011.4 |
| 20260507055224 | 6 | 198 | 9.7 | 14.5 | 0.00 | 0.00 | 0.00 | 37 | 1011.4 |
| 20260507054724 | 6 | 190 | 8.0 | 12.9 | 0.00 | 0.00 | 0.00 | 37 | 1011.4 |
| 20260507054223 | 6 | 190 | 8.0 | 11.3 | 0.00 | 0.00 | 0.00 | 37 | 1011.6 |
| 20260507053719 | 6 | 194 | 8.0 | 11.3 | 0.00 | 0.00 | 0.00 | 36 | 1011.5 |
| 20260507053220 | 6 | 202 | 8.0 | 11.3 | 0.00 | 0.00 | 0.00 | 36 | 1011.6 |
| 20260507052720 | 6 | 190 | 8.0 | 9.7 | 0.00 | 0.00 | 0.00 | 36 | 1011.6 |
| 20260507052451 | 6 | 192 | 6.4 | 9.7 | 0.00 | 0.00 | 0.00 | 36 | 1011.6 |
| 20260507051719 | 6 | 178 | 4.8 | 9.7 | 0.00 | 0.00 | 0.00 | 35 | 1011.7 |
| 20260507051219 | 6 | 178 | 3.2 | 9.7 | 0.00 | 0.00 | 0.00 | 35 | 1011.7 |
| 20260507050719 | 6 | 178 | 3.2 | 9.7 | 0.00 | 0.00 | 0.00 | 35 | 1011.7 |
| 20260507050221 | 6 | 202 | 4.8 | 6.4 | 0.00 | 0.00 | 0.00 | 34 | 1011.7 |
| 20260507045717 | 7 | 202 | 3.2 | 6.4 | 0.00 | 0.00 | 0.00 | 34 | 1011.8 |
| 20260507045216 | 7 | 314 | 3.2 | 4.8 | 0.00 | 0.00 | 0.00 | 34 | 1011.8 |
| 20260507044713 | 7 | 314 | 1.6 | 4.8 | 0.00 | 0.00 | 0.00 | 33 | 1011.8 |
| 20260507044212 | 7 | 314 | 1.6 | 3.2 | 0.00 | 0.00 | 0.00 | 33 | 1012.0 |
| 20260507043943 | 7 | 314 | 3.2 | 4.8 | 0.00 | 0.00 | 0.00 | 33 | 1011.9 |
| 20260507043213 | 7 | 314 | 3.2 | 4.8 | 0.00 | 0.00 | 0.00 | 33 | 1012.0 |
| 20260507042709 | 7 | 314 | 3.2 | 6.4 | 0.00 | 0.00 | 0.00 | 33 | 1011.9 |
| 20260507042207 | 7 | 314 | 4.8 | 6.4 | 0.00 | 0.00 | 0.00 | 33 | 1011.9 |
| 20260507041707 | 7 | 314 | 4.8 | 6.4 | 0.00 | 0.00 | 0.00 | 33 | 1012.0 |
| 20260507041207 | 7 | 314 | 4.8 | 6.4 | 0.00 | 0.00 | 0.00 | 33 | 1012.2 |
| 20260507040936 | 7 | 314 | 4.8 | 6.4 | 0.00 | 0.00 | 0.00 | 33 | 1012.3 |
| 20260507040205 | 7 | 340 | 4.8 | 9.7 | 0.00 | 0.00 | 0.00 | 32 | 1012.3 |
| 20260507035659 | 7 | 340 | 6.4 | 9.7 | 0.00 | 0.00 | 0.00 | 32 | 1012.3 |
| 20260507035159 | 7 | 342 | 6.4 | 8.0 | 0.00 | 0.00 | 0.00 | 32 | 1012.4 |
| 20260507034703 | 7 | 347 | 6.4 | 8.0 | 0.00 | 0.00 | 0.00 | 32 | 1012.4 |
| 20260507034159 | 7 | 345 | 6.4 | 8.0 | 0.00 | 0.00 | 0.00 | 31 | 1012.4 |
| 20260507033659 | 7 | 326 | 6.4 | 9.7 | 0.00 | 0.00 | 0.00 | 31 | 1012.4 |
| 20260507033159 | 8 | 326 | 4.8 | 9.7 | 0.00 | 0.00 | 0.00 | 31 | 1012.5 |
| 20260507032655 | 8 | 258 | 3.2 | 6.4 | 0.00 | 0.00 | 0.00 | 31 | 1012.4 |
| 20260507032156 | 8 | 258 | 4.8 | 6.4 | 0.00 | 0.00 | 0.00 | 31 | 1012.4 |
| 20260507031654 | 8 | 258 | 3.2 | 6.4 | 0.00 | 0.00 | 0.00 | 31 | 1012.7 |
| 20260507031153 | 8 | 258 | 3.2 | 6.4 | 0.00 | 0.00 | 0.00 | 31 | 1012.7 |
| 20260507030653 | 8 | 258 | 3.2 | 6.4 | 0.00 | 0.00 | 0.00 | 32 | 1012.8 |
| 20260507030155 | 7 | 257 | 3.2 | 6.4 | 0.00 | 0.00 | 0.00 | 32 | 1013.0 |
| 20260507025647 | 7 | 257 | 1.6 | 4.8 | 0.00 | 0.00 | 0.00 | 32 | 1013.0 |
| 20260507025147 | 7 | 258 | 3.2 | 4.8 | 0.00 | 0.00 | 0.00 | 32 | 1013.0 |
| 20260507024647 | 8 | 257 | 4.8 | 6.4 | 0.00 | 0.00 | 0.00 | 32 | 1012.8 |
| 20260507024147 | 8 | 258 | 6.4 | 11.3 | 0.00 | 0.00 | 0.00 | 32 | 1013.0 |
| 20260507023647 | 8 | 258 | 8.0 | 11.3 | 0.00 | 0.00 | 0.00 | 31 | 1013.0 |
| 20260507023417 | 8 | 269 | 8.0 | 16.1 | 0.00 | 0.00 | 0.00 | 31 | 1013.0 |
| 20260507022645 | 8 | 268 | 9.7 | 16.1 | 0.00 | 0.00 | 0.00 | 31 | 1013.1 |
| 20260507022415 | 8 | 256 | 9.7 | 14.5 | 0.00 | 0.00 | 0.00 | 31 | 1013.2 |
| 20260507021644 | 8 | 234 | 11.3 | 16.1 | 0.00 | 0.00 | 0.00 | 31 | 1013.1 |
| 20260507020640 | 8 | 227 | 11.3 | 17.7 | 0.00 | 0.00 | 0.00 | 31 | 1013.2 |
| 20260507020141 | 8 | 233 | 12.9 | 17.7 | 0.00 | 0.00 | 0.00 | 32 | 1013.2 |
| 20260507015636 | 8 | 215 | 12.9 | 16.1 | 0.00 | 0.00 | 0.00 | 32 | 1013.2 |
| 20260507015135 | 8 | 211 | 14.5 | 17.7 | 0.00 | 0.00 | 0.00 | 32 | 1013.2 |
| 20260507014634 | 8 | 219 | 14.5 | 19.3 | 0.00 | 0.00 | 0.00 | 32 | 1013.2 |
| 20260507014135 | 8 | 211 | 16.1 | 19.3 | 0.00 | 0.00 | 0.00 | 32 | 1013.2 |
| 20260507013634 | 8 | 206 | 16.1 | 22.5 | 0.00 | 0.00 | 0.00 | 32 | 1013.2 |
| 20260507013136 | 8 | 201 | 17.7 | 25.7 | 0.00 | 0.00 | 0.00 | 31 | 1013.1 |
| 20260507012902 | 8 | 207 | 19.3 | 25.7 | 0.00 | 0.00 | 0.00 | 31 | 1013.1 |
| 20260507012132 | 8 | 198 | 19.3 | 25.7 | 0.00 | 0.00 | 0.00 | 31 | 1013.1 |
| 20260507011631 | 8 | 184 | 17.7 | 25.7 | 0.00 | 0.00 | 0.00 | 31 | 1013.1 |
| 20260507011131 | 8 | 202 | 22.5 | 33.8 | 0.00 | 0.00 | 0.00 | 30 | 1013.2 |
| 20260507010629 | 9 | 199 | 24.1 | 35.4 | 0.00 | 0.00 | 0.00 | 29 | 1013.1 |
| 20260507010128 | 9 | 216 | 20.9 | 33.8 | 0.00 | 0.00 | 0.00 | 29 | 1013.0 |
| 20260507005622 | 9 | 213 | 22.5 | 37.0 | 0.00 | 0.00 | 0.00 | 29 | 1013.1 |
| 20260507005123 | 10 | 207 | 22.5 | 37.0 | 0.00 | 0.00 | 0.00 | 29 | 1013.2 |
| 20260507004625 | 10 | 192 | 20.9 | 35.4 | 0.00 | 0.00 | 0.00 | 29 | 1013.2 |
| 20260507004123 | 10 | 225 | 24.1 | 35.4 | 0.00 | 0.00 | 0.00 | 28 | 1013.2 |
| 20260507003623 | 10 | 203 | 30.6 | 45.1 | 0.00 | 0.00 | 0.00 | 29 | 1013.2 |
| 20260507003123 | 10 | 200 | 32.2 | 45.1 | 0.00 | 0.00 | 0.00 | 28 | 1013.1 |
| 20260507002620 | 10 | 201 | 29.0 | 41.8 | 0.00 | 0.00 | 0.00 | 28 | 1013.0 |
| 20260507002118 | 10 | 175 | 27.4 | 38.6 | 0.00 | 0.00 | 0.00 | 27 | 1013.1 |
| 20260507001619 | 10 | 186 | 29.0 | 49.9 | 0.00 | 0.00 | 0.00 | 27 | 1013.2 |
| 20260507001118 | 10 | 182 | 29.0 | 49.9 | 0.00 | 0.00 | 0.00 | 26 | 1013.3 |
| 20260507000850 | 10 | 198 | 22.5 | 38.6 | 0.00 | 0.00 | 0.00 | 28 | 1013.3 |
| 20260507000120 | 10 | 206 | 19.3 | 29.0 | 0.00 | 0.00 | 0.00 | 30 | 1013.5 |
| 20260506235850 | 9 | 213 | 20.9 | 29.0 | 0.00 | 0.00 | 0.00 | 28 | 1013.5 |
| 20260506235114 | 9 | 212 | 25.7 | 40.2 | 0.00 | 0.00 | 0.00 | 29 | 1013.5 |
| 20260506234845 | 10 | 206 | 30.6 | 46.7 | 0.00 | 0.00 | 0.00 | 29 | 1013.4 |
| 20260506234114 | 10 | 191 | 29.0 | 46.7 | 0.00 | 0.00 | 0.00 | 27 | 1013.3 |
| 20260506233614 | 9 | 197 | 27.4 | 43.5 | 0.00 | 0.00 | 0.00 | 27 | 1013.3 |
| 20260506233116 | 9 | 211 | 27.4 | 41.8 | 0.00 | 0.00 | 0.00 | 29 | 1013.6 |
| 20260506232614 | 9 | 225 | 27.4 | 41.8 | 0.00 | 0.00 | 0.00 | 28 | 1013.5 |
| 20260506232115 | 10 | 209 | 24.1 | 40.2 | 0.00 | 0.00 | 0.00 | 28 | 1013.6 |
| 20260506231613 | 10 | 252 | 20.9 | 32.2 | 0.00 | 0.00 | 0.00 | 28 | 1013.8 |
| 20260506231113 | 10 | 216 | 20.9 | 32.2 | 0.00 | 0.00 | 0.00 | 28 | 1013.6 |
| 20260506230613 | 10 | 244 | 19.3 | 32.2 | 0.00 | 0.00 | 0.00 | 29 | 1013.9 |
| 20260506230112 | 9 | 262 | 24.1 | 40.2 | 0.00 | 0.00 | 0.00 | 28 | 1013.9 |
| 20260506225843 | 10 | 238 | 29.0 | 40.2 | 0.00 | 0.00 | 0.00 | 28 | 1014.0 |
| 20260506225112 | 10 | 187 | 22.5 | 45.1 | 0.00 | 0.00 | 0.00 | 28 | 1013.8 |
| 20260506224613 | 10 | 208 | 22.5 | 45.1 | 0.00 | 0.00 | 0.00 | 29 | 1013.6 |
| 20260506224111 | 10 | 221 | 24.1 | 40.2 | 0.00 | 0.00 | 0.00 | 28 | 1014.1 |
| 20260506223841 | 11 | 257 | 19.3 | 37.0 | 0.00 | 0.00 | 0.00 | 29 | 1014.1 |
| 20260506223341 | 10 | 173 | 22.5 | 38.6 | 0.00 | 0.00 | 0.00 | 30 | 1014.2 |
| 20260506222843 | 10 | 203 | 25.7 | 38.6 | 0.00 | 0.00 | 0.00 | 30 | 1014.2 |
| 20260506222341 | 11 | 240 | 25.7 | 38.6 | 0.00 | 0.00 | 0.00 | 32 | 1014.2 |
| 20260506221611 | 10 | 250 | 22.5 | 38.6 | 0.00 | 0.00 | 0.00 | 31 | 1014.1 |
| 20260506221106 | 10 | 223 | 19.3 | 38.6 | 0.00 | 0.00 | 0.00 | 31 | 1014.3 |
| 20260506220837 | 10 | 244 | 27.4 | 45.1 | 0.00 | 0.00 | 0.00 | 31 | 1014.6 |
| 20260506220106 | 10 | 215 | 29.0 | 45.1 | 0.00 | 0.00 | 0.00 | 30 | 1014.4 |
| 20260506215837 | 10 | 217 | 27.4 | 48.3 | 0.00 | 0.00 | 0.00 | 31 | 1014.4 |
| 20260506215107 | 10 | 215 | 27.4 | 48.3 | 0.00 | 0.00 | 0.00 | 30 | 1014.7 |
| 20260506214606 | 10 | 245 | 22.5 | 40.2 | 0.00 | 0.00 | 0.00 | 31 | 1014.8 |
| 20260506214104 | 10 | 259 | 22.5 | 40.2 | 0.00 | 0.00 | 0.00 | 33 | 1014.9 |
| 20260506213602 | 10 | 246 | 27.4 | 45.1 | 0.00 | 0.00 | 0.00 | 30 | 1015.0 |
| 20260506213103 | 10 | 244 | 27.4 | 45.1 | 0.00 | 0.00 | 0.00 | 31 | 1015.1 |
| 20260506212604 | 10 | 248 | 25.7 | 45.1 | 0.00 | 0.00 | 0.00 | 32 | 1015.1 |
| 20260506212102 | 9 | 251 | 24.1 | 45.1 | 0.00 | 0.00 | 0.00 | 32 | 1015.0 |
| 20260506211602 | 9 | 275 | 24.1 | 37.0 | 0.00 | 0.00 | 0.00 | 32 | 1015.4 |
| 20260506211058 | 9 | 225 | 27.4 | 46.7 | 0.00 | 0.00 | 0.00 | 30 | 1015.5 |
| 20260506210556 | 9 | 252 | 27.4 | 46.7 | 0.00 | 0.00 | 0.00 | 31 | 1015.6 |
| 20260506210057 | 9 | 274 | 24.1 | 38.6 | 0.00 | 0.00 | 0.00 | 31 | 1015.6 |
| 20260506205558 | 9 | 281 | 22.5 | 38.6 | 0.00 | 0.00 | 0.00 | 32 | 1015.6 |
| 20260506205055 | 9 | 253 | 22.5 | 33.8 | 0.00 | 0.00 | 0.00 | 31 | 1015.7 |
| 20260506204554 | 8 | 221 | 24.1 | 40.2 | 0.00 | 0.00 | 0.00 | 34 | 1015.8 |
| 20260506204054 | 8 | 257 | 27.4 | 40.2 | 0.00 | 0.00 | 0.00 | 31 | 1015.7 |
| 20260506203554 | 9 | 271 | 25.7 | 48.3 | 0.00 | 0.00 | 0.00 | 32 | 1015.8 |
| 20260506202555 | 8 | 294 | 22.5 | 38.6 | 0.00 | 0.00 | 0.00 | 33 | 1015.9 |
| 20260506202054 | 9 | 273 | 22.5 | 38.6 | 0.00 | 0.00 | 0.00 | 33 | 1015.9 |
| 20260506201552 | 8 | 278 | 22.5 | 40.2 | 0.00 | 0.00 | 0.00 | 31 | 1016.0 |
| 20260506201051 | 8 | 267 | 24.1 | 41.8 | 0.00 | 0.00 | 0.00 | 32 | 1015.9 |
| 20260506200550 | 8 | 267 | 25.7 | 41.8 | 0.00 | 0.00 | 0.00 | 35 | 1016.3 |
| 20260506200050 | 8 | 277 | 24.1 | 41.8 | 0.00 | 0.00 | 0.00 | 35 | 1016.0 |
| 20260506195548 | 8 | 269 | 22.5 | 40.2 | 0.00 | 0.00 | 0.00 | 36 | 1016.2 |
| 20260506195049 | 8 | 259 | 24.1 | 41.8 | 0.00 | 0.00 | 0.00 | 37 | 1016.2 |
| 20260506194542 | 8 | 286 | 27.4 | 41.8 | 0.00 | 0.00 | 0.00 | 35 | 1016.2 |
| 20260506194042 | 8 | 253 | 27.4 | 40.2 | 0.00 | 0.00 | 0.00 | 35 | 1016.2 |
| 20260506193543 | 8 | 242 | 22.5 | 38.6 | 0.00 | 0.00 | 0.00 | 35 | 1016.3 |
| 20260506193314 | 8 | 267 | 19.3 | 37.0 | 0.00 | 0.00 | 0.00 | 35 | 1016.3 |
| 20260506192542 | 8 | 287 | 20.9 | 33.8 | 0.00 | 0.00 | 0.00 | 35 | 1016.4 |
| 20260506192043 | 7 | 261 | 24.1 | 37.0 | 0.00 | 0.00 | 0.00 | 36 | 1016.4 |
| 20260506191536 | 7 | 262 | 27.4 | 45.1 | 0.00 | 0.00 | 0.00 | 35 | 1016.5 |
| 20260506191307 | 7 | 259 | 24.1 | 45.1 | 0.00 | 0.00 | 0.00 | 35 | 1016.5 |
| 20260506190537 | 7 | 247 | 22.5 | 43.5 | 0.00 | 0.00 | 0.00 | 35 | 1016.6 |
| 20260506190036 | 6 | 271 | 20.9 | 32.2 | 0.00 | 0.00 | 0.00 | 34 | 1017.0 |
| 20260506185536 | 7 | 279 | 19.3 | 37.0 | 0.00 | 0.00 | 0.00 | 37 | 1016.8 |
| 20260506185036 | 7 | 225 | 22.5 | 37.0 | 0.00 | 0.00 | 0.00 | 36 | 1017.2 |
| 20260506184530 | 7 | 234 | 20.9 | 33.8 | 0.00 | 0.00 | 0.00 | 34 | 1017.2 |
| 20260506184031 | 7 | 261 | 19.3 | 33.8 | 0.00 | 0.00 | 0.00 | 37 | 1017.3 |
| 20260506183533 | 6 | 275 | 24.1 | 38.6 | 0.00 | 0.00 | 0.00 | 37 | 1017.4 |
| 20260506183030 | 6 | 271 | 20.9 | 38.6 | 0.00 | 0.00 | 0.00 | 37 | 1017.5 |
| 20260506182530 | 6 | 262 | 19.3 | 38.6 | 0.00 | 0.00 | 0.00 | 38 | 1017.5 |
| 20260506182030 | 6 | 257 | 16.1 | 38.6 | 0.00 | 0.00 | 0.00 | 39 | 1017.5 |
| 20260506181524 | 6 | 285 | 14.5 | 29.0 | 0.00 | 0.00 | 0.00 | 41 | 1017.8 |
| 20260506180523 | 5 | 313 | 19.3 | 32.2 | 0.00 | 0.00 | 0.00 | 38 | 1017.8 |
| 20260506180256 | 6 | 258 | 19.3 | 32.2 | 0.00 | 0.00 | 0.00 | 38 | 1017.9 |
| 20260506175026 | 6 | 222 | 14.5 | 33.8 | 0.00 | 0.00 | 0.00 | 39 | 1018.1 |
| 20260506174520 | 5 | 238 | 14.5 | 29.0 | 0.00 | 0.00 | 0.00 | 42 | 1018.1 |
| 20260506174019 | 5 | 276 | 19.3 | 33.8 | 0.00 | 0.00 | 0.00 | 39 | 1018.1 |
| 20260506173518 | 5 | 243 | 22.5 | 33.8 | 0.00 | 0.00 | 0.00 | 41 | 1018.2 |
| 20260506173018 | 5 | 219 | 19.3 | 33.8 | 0.00 | 0.00 | 0.00 | 39 | 1018.1 |
| 20260506172518 | 5 | 251 | 16.1 | 24.1 | 0.00 | 0.00 | 0.00 | 43 | 1018.2 |
| 20260506172018 | 5 | 292 | 16.1 | 25.7 | 0.00 | 0.00 | 0.00 | 42 | 1018.2 |
| 20260506171512 | 5 | 259 | 16.1 | 25.7 | 0.00 | 0.00 | 0.00 | 40 | 1018.2 |
| 20260506171012 | 4 | 269 | 16.1 | 32.2 | 0.00 | 0.00 | 0.00 | 44 | 1018.2 |
| 20260506170514 | 4 | 272 | 16.1 | 32.2 | 0.00 | 0.00 | 0.00 | 41 | 1018.3 |
| 20260506170243 | 3 | 269 | 17.7 | 35.4 | 0.00 | 0.00 | 0.00 | 42 | 1018.3 |
| 20260506165513 | 4 | 227 | 20.9 | 35.4 | 0.00 | 0.00 | 0.00 | 42 | 1018.7 |
| 20260506165011 | 4 | 238 | 20.9 | 32.2 | 0.00 | 0.00 | 0.00 | 42 | 1018.8 |
| 20260506164510 | 4 | 281 | 20.9 | 32.2 | 0.00 | 0.00 | 0.00 | 42 | 1018.7 |
| 20260506164010 | 4 | 266 | 22.5 | 37.0 | 0.00 | 0.00 | 0.00 | 44 | 1018.6 |
| 20260506163241 | 3 | 225 | 19.3 | 35.4 | 0.00 | 0.00 | 0.00 | 42 | 1018.6 |
| 20260506162510 | 3 | 219 | 19.3 | 32.2 | 0.00 | 0.00 | 0.00 | 43 | 1018.4 |
| 20260506162010 | 3 | 277 | 20.9 | 29.0 | 0.00 | 0.00 | 0.00 | 43 | 1018.6 |
| 20260506161512 | 3 | 279 | 19.3 | 29.0 | 0.00 | 0.00 | 0.00 | 43 | 1018.7 |
| 20260506161004 | 3 | 180 | 22.5 | 35.4 | 0.00 | 0.00 | 0.00 | 44 | 1018.7 |
| 20260506160504 | 3 | 213 | 24.1 | 35.4 | 0.00 | 0.00 | 0.00 | 44 | 1018.7 |
| 20260506160234 | 3 | 271 | 20.9 | 32.2 | 0.00 | 0.00 | 0.00 | 43 | 1018.8 |
| 20260506155735 | 3 | 267 | 19.3 | 38.6 | 0.00 | 0.00 | 0.00 | 44 | 1018.8 |
| 20260506155004 | 2 | 218 | 19.3 | 38.6 | 0.00 | 0.00 | 0.00 | 47 | 1018.9 |
| 20260506154506 | 2 | 192 | 20.9 | 32.2 | 0.00 | 0.00 | 0.00 | 46 | 1018.9 |
| 20260506154006 | 2 | 250 | 22.5 | 35.4 | 0.00 | 0.00 | 0.00 | 45 | 1019.1 |
| 20260506153502 | 2 | 199 | 22.5 | 35.4 | 0.00 | 0.00 | 0.00 | 47 | 1018.9 |
| 20260506153002 | 2 | 277 | 20.9 | 35.4 | 0.00 | 0.00 | 0.00 | 47 | 1019.0 |
| 20260506152502 | 2 | 229 | 19.3 | 35.4 | 0.00 | 0.00 | 0.00 | 46 | 1019.0 |
| 20260506152002 | 2 | 271 | 20.9 | 35.4 | 0.00 | 0.00 | 0.00 | 47 | 1019.1 |
| 20260506151734 | 2 | 274 | 24.1 | 38.6 | 0.00 | 0.00 | 0.00 | 45 | 1019.2 |
| 20260506151002 | 1 | 204 | 24.1 | 38.6 | 0.00 | 0.00 | 0.00 | 46 | 1019.0 |
| 20260506150505 | 1 | 213 | 24.1 | 33.8 | 0.00 | 0.00 | 0.00 | 49 | 1019.0 |
| 20260506150004 | 1 | 217 | 25.7 | 35.4 | 0.00 | 0.00 | 0.00 | 49 | 1018.9 |
| 20260506145502 | 1 | 256 | 22.5 | 35.4 | 0.00 | 0.00 | 0.00 | 48 | 1019.0 |
| 20260506144956 | 1 | 209 | 22.5 | 37.0 | 0.00 | 0.00 | 0.00 | 49 | 1019.2 |